TimeCDT,TemperatureF,Dew PointF,Humidity,Sea Level PressureIn,VisibilityMPH,Wind Direction,Wind SpeedMPH,Gust SpeedMPH,PrecipitationIn,Events,Conditions,WindDirDegrees,DateUTC
12:53 AM,33.1,25.0,72,30.38,10.0,SW,8.1,-,N/A,,Overcast,230,2012-10-27 05:53:00
1:53 AM,32.0,24.1,73,30.37,10.0,WSW,6.9,-,N/A,,Overcast,240,2012-10-27 06:53:00
2:53 AM,30.9,24.1,76,30.37,10.0,SW,4.6,-,N/A,,Overcast,230,2012-10-27 07:53:00
3:53 AM,28.9,23.0,78,30.36,10.0,SW,6.9,-,N/A,,Partly Cloudy,230,2012-10-27 08:53:00
4:53 AM,28.9,21.9,75,30.36,10.0,SW,6.9,-,N/A,,Clear,230,2012-10-27 09:53:00
5:53 AM,27.0,21.9,81,30.38,10.0,WSW,4.6,-,N/A,,Clear,240,2012-10-27 10:53:00
6:53 AM,24.1,19.9,84,30.38,10.0,WSW,3.5,-,N/A,,Clear,240,2012-10-27 11:53:00
7:53 AM,24.1,19.9,84,30.39,10.0,SSW,5.8,-,N/A,,Clear,210,2012-10-27 12:53:00
8:53 AM,28.0,23.0,81,30.40,10.0,SW,6.9,-,N/A,,Clear,220,2012-10-27 13:53:00
9:53 AM,32.0,24.1,73,30.40,10.0,SW,5.8,-,N/A,,Clear,230,2012-10-27 14:53:00
10:53 AM,36.0,26.1,67,30.40,10.0,WSW,6.9,-,N/A,,Clear,240,2012-10-27 15:53:00
11:53 AM,39.9,25.0,55,30.39,10.0,West,10.4,-,N/A,,Clear,260,2012-10-27 16:53:00
1:53 PM,41.0,21.9,47,30.35,10.0,SW,10.4,-,N/A,,Scattered Clouds,220,2012-10-27 18:53:00
2:53 PM,41.0,21.0,45,30.33,10.0,SSW,6.9,-,N/A,,Clear,210,2012-10-27 19:53:00
3:53 PM,39.9,21.0,47,30.31,10.0,SSW,6.9,-,N/A,,Clear,210,2012-10-27 20:53:00
4:53 PM,39.9,21.9,49,30.31,10.0,South,5.8,-,N/A,,Clear,190,2012-10-27 21:53:00
5:53 PM,37.9,24.1,57,30.32,10.0,South,4.6,-,N/A,,Clear,190,2012-10-27 22:53:00
6:53 PM,36.0,26.1,67,30.32,10.0,SE,4.6,-,N/A,,Overcast,140,2012-10-27 23:53:00
7:53 PM,34.0,26.1,73,30.34,10.0,SSE,5.8,-,N/A,,Clear,150,2012-10-28 00:53:00
8:53 PM,32.0,24.1,73,30.34,10.0,SSE,6.9,-,N/A,,Mostly Cloudy,150,2012-10-28 01:53:00
9:53 PM,33.1,25.0,72,30.34,10.0,SSE,8.1,-,N/A,,Scattered Clouds,150,2012-10-28 02:53:00
10:53 PM,32.0,24.1,73,30.33,10.0,SSE,6.9,-,N/A,,Mostly Cloudy,150,2012-10-28 03:53:00
11:53 PM,30.0,24.1,79,30.33,10.0,SSE,6.9,-,N/A,,Clear,160,2012-10-28 04:53:00